Regional Weather Roundup
Issued by NWS Sterling, VA

Home | Current Version | Previous Version | Graphics & Text | Print | Product List | Glossary On
Versions: 1 2 3 4 5 6 7 8 9 10 11 12 13 14 15 16 17 18 19 20 21 22 23 24 25 26 27
000
ASUS41 KLWX 220011
RWRLWX

REGIONAL WEATHER ROUNDUP
NATIONAL WEATHER SERVICE BALTIMORE MD/WASHINGTON DC
800 PM EDT SUN MAY 21 2017

Note: "FAIR" indicates few or no clouds below 12,000 feet
with no significant weather and/or obstructions to visibility.
 TC=TEMPERATURE CELSIUS

 * =Non NWS site. Station does not report precipitation (e.g. rain,
    snow, etc.), thunder, or fog.

DCZ001-MDZ009-015-VAZ040>042-051-053>054-220100-
WASHINGTON METRO

CITY           SKY/WX    TMP DP  RH WIND       PRES   REMARKS
WASHINGTON NAT CLOUDY    67  51  56 S10       30.21R
DULLES         CLOUDY    64  49  57 SE9       30.20S
ANDREWS AFB    CLOUDY    63  49  61 SE7       30.20S
FT BELVOIR     CLOUDY    65  51  60 S3        30.21R
QUANTICO       CLOUDY    66  54  65 SE10      30.21S
COLLEGE PARK*  CLOUDY    65  49  55 SE3       30.21R
LEESBURG*      CLOUDY    66  52  59 S6        30.21F
MANASSAS*        N/A     64  53  67 SE6       30.21S
GAITHERSBURG*  CLOUDY    63  49  60 SE6       30.22R

$$

MDZ006>007-011-014-220100-
BALTIMORE METRO

CITY           SKY/WX    TMP DP  RH WIND       PRES   REMARKS
BWI AIRPORT    CLOUDY    64  50  60 SE5       30.22R
MD SCIENCE CTR   N/A     64  54  69 MISG      30.23R
MARTIN STATE   CLOUDY    63  54  72 E10       30.24R
ANNAPOLIS      CLOUDY    66  56  70 SE16      30.21S
FORT MEADE*    CLOUDY    63  50  63 SE6       30.24R

$$

MDZ012-015-019>023-220100-
MARYLAND EASTERN SHORE

CITY           SKY/WX    TMP DP  RH WIND       PRES   REMARKS
OCEAN CITY     MOCLDY    59  52  77 E8        30.24F
SALISBURY      CLOUDY    60  51  72 E8        30.24S
BAY BRIDGE AP*   N/A     64  50  59 SE13      30.22S
CAMBRIDGE*     CLOUDY    63  50  63 E8        30.23S
EASTON*        MOCLDY    63  50  63 E8        30.26F

$$

MDZ017>025-220100-
SOUTHERN MARYLAND

CITY           SKY/WX    TMP DP  RH WIND       PRES   REMARKS
PATUXENT RIVER CLOUDY    63  52  67 SE13      30.21F
ST INIGOES     MOCLDY    64  51  62 E8        30.21S
LEONARDTOWN*   CLOUDY    63  50  63 SE8       30.23S

$$

MDZ003>005-220100-
NORTH CENTRAL MARYLAND

CITY           SKY/WX    TMP DP  RH WIND       PRES   REMARKS
FREDERICK*     CLOUDY    66  54  63 MISG      30.23S
HAGERSTOWN APT CLOUDY    65  49  56 SE8       30.19S
WESTMINSTER*   CLOUDY    63  52  67 SE7       30.22R

$$

MDZ501>502-220100-
WESTERN MARYLAND

CITY           SKY/WX    TMP DP  RH WIND       PRES   REMARKS
OAKLAND*         N/A     52  50  93 SE10G16   30.16R
CUMBERLAND*    CLOUDY    61  52  72 CALM      30.19R

$$

VAZ025>031-220100-
SHENANDOAH VALLEY

CITY           SKY/WX    TMP DP  RH WIND       PRES   REMARKS
WINCHESTER*    CLOUDY    61  52  72 SE7       30.18R
FRONT ROYAL*   CLOUDY    63  54  72 S6        30.16S
LURAY*         CLOUDY    64  55  72 SW6       30.18S
NEW MARKET*    CLOUDY    65  56  71 CALM      30.16S
STAUNTON*      CLOUDY    62  55  79 S5        30.21S
WAYNESBORO*    CLOUDY    60  56  88 E8        30.20S

$$

WVZ021-048>050-054>055-220100-
EASTERN WEST VIRGINIA PANHANDLE

CITY           SKY/WX    TMP DP  RH WIND       PRES   REMARKS
MARTINSBURG    CLOUDY    62  50  64 SE5       30.18S
PETERSBURG*    CLOUDY    67  60  80 N3        30.12F

$$

VAZ036>039-050-220100-
CENTRAL FOOTHILLS

CITY           SKY/WX    TMP DP  RH WIND       PRES   REMARKS
CHARLOTTESVILL CLOUDY    65  58  78 CALM      30.20R
CULPEPER*      CLOUDY    64  56  73 CALM      30.21S
ORANGE*        CLOUDY    63  57  82 CALM      30.20S
GORDONSVILLE*  CLOUDY    64  58  81 CALM      30.19S
WARRENTON*     CLOUDY    64  50  58 E3        30.20S

$$

VAZ055>057-220100-
NORTH AND CENTRAL PIEDMONT

CITY           SKY/WX    TMP DP  RH WIND       PRES   REMARKS
FREDERICKSBRG* PTCLDY    65  51  59 E6        30.20R
STAFFORD*      MOCLDY    62  51  67 E6        30.24F

$$

NCZ024-NYZ072-PAZ021-071-VAZ022-071-220100-
OTHER REGIONAL OBSERVATIONS

CITY           SKY/WX    TMP DP  RH WIND       PRES   REMARKS
NEW YORK CITY  CLOUDY    58  40  51 S7        30.31S
PHILADELPHIA   CLOUDY    64  43  46 SE10      30.25S
PITTSBURGH     CLOUDY    68  65  90 S8        30.03F
ROANOKE        LGT RAIN  61  60  97 SE5       30.21S
RICHMOND       CLOUDY    65  56  72 E12       30.19S
RALEIGH        CLOUDY    71  64  78 NE7       30.15S

$$

ANZ530>537-220100-
MARINE OBSERVATIONS

STATION/POSITION TIME  TEMP    WIND        PRES
                       AIR SEA DIR/SP/G
                 (UTC) (F)     (DEG/KT/KT) (MB)
THOMAS PT LIGHT  0000   63 66  120/ 15/ 16   N/A
BALT KEY BRIDGE  2336   63     100/ 14/ 16 1023.0R
COVE POINT       2336   64     150/ 11/ 14 1023.8S
LEWISETTA        2336   64 72  130/ 10/ 12 1022.8S
SOLOMONS ISLAND  2336   64 67  130/ 13/ 15   N/A
PINEY POINT      2342          150/ 14/ 16   N/A

$$





USA.gov is the U.S. government's official web portal to all federal, state and local government web resources and services.